• In Russia
  • List of Countries
  • For 7 days
  • Water Temperature
  • Satellite Maps
  • Weather Map
  • Weather Widgets
  • user-avatar
    Login

    Hourly Weather Abovyan

    Today, 21 October, Sunday

    Time Temperature Precipitation Wind Pressure Humidity
    00:00 +14°C° 0.2 mm 1 mps 671 mmHg 65%
    01:00 +13°C° 0.1 mm 1 mps 671 mmHg 67%
    02:00 +13°C° 0.1 mm 1 mps 671 mmHg 68%
    03:00 +13°C° 0.1 mm 1 mps 671 mmHg 70%
    04:00 +13°C° 0 mm 1 mps 671 mmHg 70%
    05:00 +13°C° 0 mm 1 mps 671 mmHg 71%
    06:00 +12°C° 0 mm 1 mps 671 mmHg 72%
    07:00 +14°C° 0 mm 1 mps 671 mmHg 65%
    08:00 +16°C° 0 mm 2 mps 672 mmHg 59%
    09:00 +18°C° 0 mm 2 mps 672 mmHg 51%
    10:00 +19°C° 0 mm 2 mps 672 mmHg 48%
    11:00 +20°C° 0 mm 3 mps 672 mmHg 44%
    12:00 +21°C° 0 mm 3 mps 672 mmHg 41%
    13:00 +21°C° 0 mm 3 mps 672 mmHg 41%
    14:00 +21°C° 0 mm 3 mps 672 mmHg 41%
    15:00 +21°C° 0 mm 3 mps 671 mmHg 41%
    16:00 +20°C° 0.3 mm 3 mps 671 mmHg 46%
    17:00 +18°C° 0.3 mm 2 mps 671 mmHg 50%
    18:00 +17°C° 0.3 mm 2 mps 671 mmHg 55%
    19:00 +17°C° 0.4 mm 2 mps 671 mmHg 57%
    20:00 +16°C° 0.4 mm 2 mps 671 mmHg 59%
    21:00 +16°C° 0.4 mm 1 mps 671 mmHg 61%
    22:00 +15°C° 0.4 mm 1 mps 671 mmHg 62%
    23:00 +15°C° 0.4 mm 1 mps 671 mmHg 63%

    Tomorrow, 22 October, Monday

    Time Temperature Precipitation Wind Pressure Humidity
    00:00 +15°C° 0.4 mm 1 mps 671 mmHg 64%
    01:00 +14°C° 0.2 mm 1 mps 671 mmHg 65%
    02:00 +14°C° 0.2 mm 1 mps 671 mmHg 67%
    03:00 +14°C° 0.2 mm 1 mps 671 mmHg 68%
    04:00 +14°C° 0.4 mm 1 mps 671 mmHg 69%
    05:00 +14°C° 0.4 mm 1 mps 671 mmHg 71%
    06:00 +13°C° 0.4 mm 1 mps 671 mmHg 72%
    07:00 +14°C° 0.3 mm 2 mps 672 mmHg 70%
    08:00 +15°C° 0.3 mm 2 mps 672 mmHg 68%
    09:00 +16°C° 0.3 mm 2 mps 672 mmHg 65%
    10:00 +17°C° 0 mm 3 mps 673 mmHg 61%
    11:00 +18°C° 0 mm 3 mps 673 mmHg 56%
    12:00 +19°C° 0 mm 3 mps 673 mmHg 51%
    13:00 +19°C° 0 mm 3 mps 673 mmHg 50%
    14:00 +20°C° 0 mm 3 mps 672 mmHg 48%
    15:00 +20°C° 0 mm 3 mps 672 mmHg 47%
    16:00 +18°C° 0 mm 2 mps 672 mmHg 52%
    17:00 +17°C° 0 mm 2 mps 672 mmHg 57%
    18:00 +16°C° 0 mm 1 mps 672 mmHg 62%
    19:00 +15°C° 0 mm 1 mps 672 mmHg 62%
    20:00 +15°C° 0 mm 1 mps 672 mmHg 63%
    21:00 +14°C° 0 mm 1 mps 672 mmHg 63%
    22:00 +14°C° 0 mm 1 mps 672 mmHg 64%
    23:00 +14°C° 0 mm 1 mps 672 mmHg 64%

    Day after tomorrow, 23 October, Tuesday

    Time Temperature Precipitation Wind Pressure Humidity
    00:00 +13°C° 0 mm 1 mps 672 mmHg 64%
    01:00 +13°C° 0 mm 1 mps 672 mmHg 65%
    02:00 +13°C° 0 mm 1 mps 672 mmHg 66%
    03:00 +13°C° 0 mm 1 mps 672 mmHg 67%
    04:00 +12°C° 0 mm 1 mps 672 mmHg 67%
    05:00 +12°C° 0 mm 1 mps 672 mmHg 67%
    06:00 +12°C° 0 mm 1 mps 672 mmHg 68%
    07:00 +14°C° 0 mm 1 mps 672 mmHg 62%
    08:00 +15°C° 0 mm 2 mps 673 mmHg 57%
    09:00 +17°C° 0 mm 2 mps 673 mmHg 52%
    10:00 +18°C° 0 mm 2 mps 673 mmHg 49%
    11:00 +19°C° 0 mm 3 mps 673 mmHg 46%
    12:00 +20°C° 0 mm 3 mps 672 mmHg 44%
    13:00 +20°C° 0.1 mm 3 mps 672 mmHg 43%
    14:00 +20°C° 0.1 mm 3 mps 672 mmHg 43%
    15:00 +20°C° 0.1 mm 3 mps 671 mmHg 42%
    16:00 +18°C° 0.1 mm 3 mps 671 mmHg 47%
    17:00 +17°C° 0.1 mm 2 mps 671 mmHg 51%
    18:00 +16°C° 0.1 mm 2 mps 670 mmHg 56%
    19:00 +15°C° 0 mm 2 mps 671 mmHg 57%
    20:00 +15°C° 0 mm 2 mps 671 mmHg 58%
    21:00 +14°C° 0 mm 2 mps 671 mmHg 59%
    22:00 +14°C° 0.1 mm 2 mps 670 mmHg 60%
    23:00 +14°C° 0.1 mm 2 mps 670 mmHg 60%

    24 October, Wednesday

    Time Temperature Precipitation Wind Pressure Humidity
    00:00 +14°C° 0.1 mm 2 mps 670 mmHg 61%
    01:00 +14°C° 0.6 mm 2 mps 670 mmHg 63%
    02:00 +14°C° 0.6 mm 2 mps 670 mmHg 64%
    03:00 +14°C° 0.6 mm 2 mps 669 mmHg 65%
    04:00 +14°C° 0.9 mm 2 mps 669 mmHg 68%
    05:00 +13°C° 0.9 mm 2 mps 669 mmHg 70%
    06:00 +13°C° 0.9 mm 2 mps 669 mmHg 73%
    07:00 +14°C° 0.1 mm 2 mps 669 mmHg 69%
    08:00 +14°C° 0.1 mm 3 mps 669 mmHg 66%
    09:00 +16°C° 0.1 mm 3 mps 670 mmHg 62%
    10:00 +17°C° 0.2 mm 3 mps 669 mmHg 59%
    11:00 +18°C° 0.2 mm 4 mps 669 mmHg 56%
    12:00 +19°C° 0.2 mm 4 mps 668 mmHg 53%
    13:00 +19°C° 0.6 mm 4 mps 668 mmHg 55%
    14:00 +18°C° 0.6 mm 4 mps 667 mmHg 57%
    15:00 +18°C° 0.6 mm 4 mps 667 mmHg 59%
    16:00 +17°C° 0.7 mm 4 mps 667 mmHg 63%
    17:00 +15°C° 0.7 mm 4 mps 666 mmHg 67%
    18:00 +14°C° 0.7 mm 3 mps 666 mmHg 71%
    19:00 +14°C° 0.5 mm 3 mps 666 mmHg 72%
    20:00 +14°C° 0.5 mm 3 mps 666 mmHg 73%
    21:00 +13°C° 0.5 mm 3 mps 666 mmHg 75%
    22:00 +13°C° 0.3 mm 3 mps 666 mmHg 75%
    23:00 +13°C° 0.3 mm 3 mps 666 mmHg 75%

    25 October, Thursday

    Time Temperature Precipitation Wind Pressure Humidity
    00:00 +13°C° 0.3 mm 3 mps 666 mmHg 75%
    01:00 +13°C° 0.2 mm 3 mps 666 mmHg 75%
    02:00 +12°C° 0.2 mm 3 mps 665 mmHg 75%
    03:00 +12°C° 0.2 mm 3 mps 665 mmHg 75%
    04:00 +12°C° 0.1 mm 4 mps 665 mmHg 75%
    05:00 +12°C° 0.1 mm 4 mps 665 mmHg 75%
    06:00 +12°C° 0.1 mm 4 mps 664 mmHg 75%
    07:00 +13°C° 0.2 mm 4 mps 664 mmHg 71%
    08:00 +14°C° 0.2 mm 5 mps 664 mmHg 67%
    09:00 +15°C° 0.2 mm 6 mps 664 mmHg 64%
    10:00 +16°C° 0.3 mm 6 mps 664 mmHg 60%
    11:00 +17°C° 0.3 mm 6 mps 663 mmHg 56%
    12:00 +20°C° 0.3 mm 7 mps 663 mmHg 52%
    13:00 +20°C° 0.6 mm 6 mps 662 mmHg 51%
    14:00 +20°C° 0.6 mm 6 mps 662 mmHg 50%
    15:00 +20°C° 0.6 mm 6 mps 661 mmHg 49%
    16:00 +19°C° 1.1 mm 5 mps 661 mmHg 54%
    17:00 +18°C° 1.1 mm 4 mps 661 mmHg 60%
    18:00 +16°C° 1.1 mm 3 mps 661 mmHg 65%
    19:00 +15°C° 0.9 mm 4 mps 661 mmHg 66%
    20:00 +15°C° 0.9 mm 4 mps 662 mmHg 68%
    21:00 +14°C° 0.9 mm 4 mps 662 mmHg 70%
    22:00 +14°C° 0.6 mm 4 mps 662 mmHg 72%
    23:00 +14°C° 0.6 mm 4 mps 662 mmHg 73%

    26 October, Friday

    Time Temperature Precipitation Wind Pressure Humidity
    00:00 +14°C° 0.6 mm 4 mps 661 mmHg 75%
    01:00 +13°C° 0.7 mm 4 mps 661 mmHg 76%
    02:00 +13°C° 0.7 mm 4 mps 661 mmHg 77%
    03:00 +13°C° 0.7 mm 4 mps 661 mmHg 78%
    04:00 +13°C° 0.5 mm 4 mps 662 mmHg 78%
    05:00 +13°C° 0.5 mm 4 mps 662 mmHg 77%
    06:00 +13°C° 0.5 mm 4 mps 663 mmHg 77%
    07:00 +13°C° 1.6 mm 4 mps 663 mmHg 75%
    08:00 +13°C° 1.6 mm 4 mps 664 mmHg 74%
    09:00 +14°C° 1.6 mm 4 mps 664 mmHg 73%
    10:00 +12°C° 2.3 mm 4 mps 664 mmHg 74%
    11:00 +11°C° 2.3 mm 4 mps 664 mmHg 76%
    12:00 +10°C° 2.3 mm 4 mps 664 mmHg 77%
    13:00 +11°C° 1.2 mm 3 mps 664 mmHg 75%
    14:00 +11°C° 1.2 mm 3 mps 664 mmHg 73%
    15:00 +12°C° 1.2 mm 2 mps 665 mmHg 71%
    16:00 +10°C° 0.2 mm 2 mps 665 mmHg 72%
    17:00 +10°C° 0.2 mm 3 mps 666 mmHg 73%
    18:00 +8°C° 0.2 mm 4 mps 666 mmHg 74%
    19:00 +8°C° 0.6 mm 4 mps 667 mmHg 75%
    20:00 +7°C° 0.6 mm 4 mps 668 mmHg 75%
    21:00 +7°C° 0.6 mm 4 mps 668 mmHg 76%
    22:00 +6°C° 0.5 mm 4 mps 669 mmHg 75%
    23:00 +6°C° 0.5 mm 4 mps 670 mmHg 75%
    Show more